Location: Central Falls
(41.8900°N, 71.3929°W)
Time: 06:40:56
(UTC+00:00)

Vanguard 3 - Pass Details

Date: 10 December 2023
Orbit: 508 x 3239 km, 33.4° (Epoch: 01 March)

Event Time Altitude Azimuth Distance (km) Brightness Sun altitude
Rises 02:40:33 0° 254° (WSW) 6,613 12.1 -59.0°
Reaches altitude 10° 02:45:38 10° 251° (WSW) 5,239 11.4 -59.8°
Enters shadow 02:50:16 22° 245° (WSW) 3,943 10.6 -60.6°
